Flag for U.S.A. Weather past 2 weeks in Bridgeport, Connecticut, U.S.A.

Now
71 °F

Passing clouds.


Feels Like: 75 °F
Forecast: 65 / 79 °F
Wind: 3 mph from North

Location: Sikorsky Memorial Airport

Current Time: Jul 3, 2015 at 3:05:58 AM

Latest Report: Jul 3, 2015 at 1:52 AM


Visibility: 10 mi

Pressure: 29.89 "Hg

Humidity: 68%

Dew point: 60 °F

Location of BridgeportLocation

Historic Weather in Bridgeport — Graph

°F

Bridgeport temperature yesterday

Maximum temperature yesterday: 77 °F (at 3:52 PM)
Minimum temperature yesterday: 66 °F (at 4:52 AM)
Average temperature yesterday: 73 °F

Past Weeks' High & Low Weather Summary

 TemperatureHumidityPressure
High88 °F (Jun 21, 5:52 PM)100% (Jun 21, 2:52 AM)30.14 "Hg (Jun 21, 2:52 AM)
Low60 °F (Jun 27, 11:52 PM)36% (Jun 25, 12:52 PM)29.65 "Hg (Jun 28, 11:52 AM)
Average72 °F71%29.91 "Hg
* Reported Jun 18 1:52 AM — Jul 3 1:52 AM, Bridgeport, Weather by CustomWeather, © 2015

Note: Actual official high and low records may vary slightly from our data, if they occured in-between our weather recording intervals... More about our weather records

Advertising

Bridgeport weather history for previous 24 hours

 ConditionsComfort  
Time TempWeatherWind HumidityBarometerVisibility
1:52 AM
Fri, Jul 3
71 °FPassing clouds.3 mph68%29.89 "Hg10 mi
12:52 AM71 °FClear.No wind73%29.89 "Hg10 mi
11:52 PM
Thu, Jul 2
72 °FClear.5 mph71%29.87 "Hg10 mi
10:52 PM73 °FClear.No wind69%29.87 "Hg10 mi
9:52 PM73 °FClear.No wind69%29.87 "Hg10 mi
8:52 PM73 °FSunny.3 mph69%29.86 "Hg10 mi
7:52 PM74 °FSunny.No wind64%29.85 "Hg10 mi
6:52 PM74 °FSunny.5 mph62%29.86 "Hg10 mi
5:52 PM77 °FSunny.8 mph52%29.86 "Hg10 mi
4:52 PM77 °FSunny.No wind50%29.88 "Hg10 mi
3:52 PM77 °FSunny.3 mph44%29.89 "Hg10 mi
2:52 PM76 °FSunny.5 mph50%29.90 "Hg10 mi
1:52 PM74 °FSunny.9 mph62%29.90 "Hg10 mi
12:52 PM75 °FSunny.9 mph62%29.90 "Hg10 mi
11:52 AM74 °FSunny.12 mph62%29.91 "Hg10 mi
10:52 AM74 °FSunny.6 mph64%29.91 "Hg10 mi
9:52 AM73 °FSunny.No wind66%29.91 "Hg10 mi
8:52 AM71 °FSunny.No wind68%29.91 "Hg10 mi
7:52 AM69 °FSunny.No wind76%29.90 "Hg10 mi
6:52 AM69 °FSunny.5 mph73%29.88 "Hg10 mi
5:52 AM67 °FClear.5 mph79%29.88 "Hg10 mi
4:52 AM66 °FClear.3 mph81%29.85 "Hg10 mi
3:52 AM70 °FClear.3 mph68%29.85 "Hg10 mi
Weather by CustomWeather, © 2015

See weather overviewHow to use our weather pages